GW0346 Weather Reports


time (UTC)temp
F
wind
direction
speed
knots
gust
knots
rain 1hr
in
rain 24hr
in
rain mn
in
humidity
%
barometer
mb
20220629031518 86 193 0.0 3.5 0.00 0.00 0.00 31 1012.8
20220629031011 87 161 0.9 3.5 0.00 0.00 0.00 30 1012.6
20220629030512 88 270 0.9 3.5 0.00 0.00 0.00 27 1012.4
20220629030009 88 131 0.9 3.5 0.00 0.00 0.00 23 1012.4
20220629025514 89 226 0.9 4.3 0.00 0.00 0.00 23 1012.5
20220629025013 90 142 0.9 4.3 0.00 0.00 0.00 21 1012.5
20220629024513 90 0 0.9 1.7 0.00 0.00 0.00 19 1012.5
20220629024011 91 143 0.0 4.3 0.00 0.00 0.00 18 1012.5
20220629023511 91 140 0.9 4.3 0.00 0.00 0.00 17 1012.5
20220629023013 92 194 0.9 4.3 0.00 0.00 0.00 17 1012.6
20220629022511 92 0 0.9 3.5 0.00 0.00 0.00 16 1012.6
20220629022012 92 149 0.9 5.2 0.00 0.00 0.00 16 1012.6
20220629021513 93 173 1.7 5.2 0.00 0.00 0.00 16 1012.5
20220629021013 93 171 1.7 5.2 0.00 0.00 0.00 16 1012.5
20220629020511 93 0 0.0 3.5 0.00 0.00 0.00 17 1012.5
20220629020017 94 167 0.9 3.5 0.00 0.00 0.00 16 1012.5
20220629015512 94 179 0.9 4.3 0.00 0.00 0.00 16 1012.4
20220629015011 94 205 1.7 4.3 0.00 0.00 0.00 16 1012.4
20220629014511 94 192 0.9 4.3 0.00 0.00 0.00 16 1012.5
20220629014011 95 163 1.7 4.3 0.00 0.00 0.00 14 1012.5
20220629013511 95 207 0.9 3.5 0.00 0.00 0.00 14 1012.5
20220629013009 95 175 0.9 3.5 0.00 0.00 0.00 14 1012.5
20220629012511 95 180 0.0 4.3 0.00 0.00 0.00 13 1012.5
20220629012012 96 134 0.9 4.3 0.00 0.00 0.00 12 1012.5
20220629011512 96 217 0.9 3.5 0.00 0.00 0.00 13 1012.6
20220629011011 96 0 0.9 4.3 0.00 0.00 0.00 14 1012.5
20220629010514 96 151 0.9 4.3 0.00 0.00 0.00 13 1012.5
20220629010010 96 0 0.9 2.6 0.00 0.00 0.00 14 1012.5
20220629005511 96 196 0.9 2.6 0.00 0.00 0.00 14 1012.6
20220629005012 96 0 0.0 2.6 0.00 0.00 0.00 13 1012.8
20220629004510 96 155 0.0 2.6 0.00 0.00 0.00 14 1012.9
20220629004012 97 0 0.0 3.5 0.00 0.00 0.00 11 1012.9
20220629003512 97 0 0.9 3.5 0.00 0.00 0.00 13 1013.0
20220629003009 97 0 0.0 2.6 0.00 0.00 0.00 12 1013.0
20220629002511 97 94 0.0 2.6 0.00 0.00 0.00 11 1013.0
20220629002013 98 0 0.0 2.6 0.00 0.00 0.00 12 1013.0
20220629001512 98 0 0.0 2.6 0.00 0.00 0.00 12 1013.1
20220629001012 97 136 0.9 2.6 0.00 0.00 0.00 11 1013.1
20220629000512 97 0 0.0 2.6 0.00 0.00 0.00 12 1013.3
20220629000010 97 157 0.0 2.6 0.00 0.00 0.00 12 1013.3
20220628235512 98 133 0.9 4.3 0.00 0.00 0.00 12 1013.4
20220628235012 98 131 0.9 4.3 0.00 0.00 0.00 12 1013.4
20220628234516 98 116 0.9 4.3 0.00 0.00 0.00 14 1013.4
20220628234012 98 0 0.9 7.0 0.00 0.00 0.00 12 1013.5
20220628233513 98 171 1.7 7.0 0.00 0.00 0.00 13 1013.5
20220628233013 98 193 0.9 4.3 0.00 0.00 0.00 14 1013.7
20220628232511 98 203 1.7 4.3 0.00 0.00 0.00 14 1013.6
20220628232012 98 236 0.9 3.5 0.00 0.00 0.00 14 1013.6
20220628231511 98 204 0.9 4.3 0.00 0.00 0.00 14 1013.6
20220628231012 98 233 0.9 4.3 0.00 0.00 0.00 14 1013.7
20220628230516 98 144 0.9 6.1 0.00 0.00 0.00 15 1013.8
20220628230011 98 225 1.7 6.1 0.00 0.00 0.00 13 1013.8
20220628225511 98 182 0.9 5.2 0.00 0.00 0.00 13 1013.9
20220628225015 98 234 0.9 4.3 0.00 0.00 0.00 12 1013.8
20220628224518 98 240 0.9 4.3 0.00 0.00 0.00 13 1013.8
20220628224012 98 237 0.9 4.3 0.00 0.00 0.00 14 1013.9
20220628223515 98 0 0.9 4.3 0.00 0.00 0.00 16 1013.9
20220628223012 98 117 0.9 2.6 0.00 0.00 0.00 15 1014.0
20220628222514 98 209 0.0 3.5 0.00 0.00 0.00 16 1014.0
20220628222015 98 159 0.9 4.3 0.00 0.00 0.00 14 1014.0
20220628221514 98 184 0.9 4.3 0.00 0.00 0.00 14 1014.1
20220628221013 98 217 0.9 4.3 0.00 0.00 0.00 14 1014.0
20220628220509 97 0 0.0 5.2 0.00 0.00 0.00 14 1014.1
20220628220019 97 55 0.9 5.2 0.00 0.00 0.00 13 1014.1
20220628215512 97 221 0.9 4.3 0.00 0.00 0.00 13 1014.1
20220628215012 97 0 0.9 4.3 0.00 0.00 0.00 13 1014.2
20220628214510 97 223 0.9 3.5 0.00 0.00 0.00 13 1014.1
20220628214012 96 174 0.0 3.5 0.00 0.00 0.00 15 1014.3
20220628213513 97 0 0.9 5.2 0.00 0.00 0.00 16 1014.2
20220628213010 97 0 0.9 5.2 0.00 0.00 0.00 14 1014.3
20220628212509 97 0 0.9 4.3 0.00 0.00 0.00 14 1014.3
20220628212010 96 196 0.0 3.5 0.00 0.00 0.00 16 1014.4
20220628211511 96 0 0.0 3.5 0.00 0.00 0.00 15 1014.4
20220628211009 96 182 0.0 1.7 0.00 0.00 0.00 12 1014.6
20220628210510 95 0 0.0 2.6 0.00 0.00 0.00 11 1014.6
20220628210010 96 0 0.0 3.5 0.00 0.00 0.00 13 1014.6
20220628205512 96 233 0.0 3.5 0.00 0.00 0.00 23 1014.6
20220628205010 95 163 0.9 3.5 0.00 0.00 0.00 13 1014.7
20220628204512 95 111 0.0 3.5 0.00 0.00 0.00 14 1014.7
20220628204011 95 0 0.0 4.3 0.00 0.00 0.00 19 1014.8
20220628203513 96 189 0.9 4.3 0.00 0.00 0.00 14 1014.9
20220628203012 95 0 0.9 2.6 0.00 0.00 0.00 18 1014.9
20220628202510 95 0 0.9 3.5 0.00 0.00 0.00 14 1015.0
20220628202009 94 0 0.0 3.5 0.00 0.00 0.00 20 1015.0
20220628201515 94 0 0.9 4.3 0.00 0.00 0.00 16 1015.1
20220628201010 94 225 0.0 4.3 0.00 0.00 0.00 21 1015.1
20220628200510 93 53 0.0 3.5 0.00 0.00 0.00 15 1015.1
20220628200012 93 0 0.0 4.3 0.00 0.00 0.00 17 1015.2
20220628195511 93 0 0.9 4.3 0.00 0.00 0.00 16 1015.2
20220628195014 93 209 0.9 3.5 0.00 0.00 0.00 17 1015.3
20220628194520 93 155 0.9 3.5 0.00 0.00 0.00 17 1015.3
20220628194013 93 160 0.0 3.5 0.00 0.00 0.00 17 1015.3
20220628193510 92 0 0.9 3.5 0.00 0.00 0.00 21 1015.5
20220628193013 92 159 0.9 3.5 0.00 0.00 0.00 20 1015.5
20220628192512 91 0 0.9 3.5 0.00 0.00 0.00 19 1015.5
20220628192011 91 0 0.9 3.5 0.00 0.00 0.00 18 1015.5
20220628191515 91 207 0.9 3.5 0.00 0.00 0.00 19 1015.6
20220628191010 90 0 0.9 3.5 0.00 0.00 0.00 20 1015.6
20220628190514 90 142 0.9 4.3 0.00 0.00 0.00 22 1015.7
20220628190012 89 268 1.7 4.3 0.00 0.00 0.00 18 1015.7
20220628185510 90 145 0.9 3.5 0.00 0.00 0.00 20 1015.8
20220628185015 89 129 0.9 4.3 0.00 0.00 0.00 18 1015.7
20220628184513 89 254 0.9 4.3 0.00 0.00 0.00 19 1015.8
20220628184010 89 155 0.9 4.3 0.00 0.00 0.00 19 1015.7
20220628183511 88 241 0.9 4.3 0.00 0.00 0.00 20 1015.7
20220628183012 88 0 0.9 3.5 0.00 0.00 0.00 21 1015.8
20220628182511 88 0 0.0 3.5 0.00 0.00 0.00 25 1015.7
20220628182011 88 218 0.9 3.5 0.00 0.00 0.00 24 1015.8
20220628181512 87 138 0.9 4.3 0.00 0.00 0.00 24 1015.7
20220628181010 86 96 0.9 4.3 0.00 0.00 0.00 27 1015.7
20220628180512 85 0 0.9 4.3 0.00 0.00 0.00 27 1015.8
20220628180013 85 213 0.9 4.3 0.00 0.00 0.00 28 1015.8
20220628175512 85 212 0.9 5.2 0.00 0.00 0.00 28 1015.7
20220628175010 84 238 0.9 5.2 0.00 0.00 0.00 28 1015.7
20220628174513 84 152 0.9 4.3 0.00 0.00 0.00 27 1015.8
20220628174011 84 218 0.9 4.3 0.00 0.00 0.00 27 1015.7
20220628173511 85 238 0.9 3.5 0.00 0.00 0.00 26 1015.8
20220628173013 84 169 0.9 3.5 0.00 0.00 0.00 30 1015.8
20220628172510 84 129 0.9 4.3 0.00 0.00 0.00 28 1015.8
20220628172011 85 173 0.9 4.3 0.00 0.00 0.00 25 1015.7
20220628171517 85 224 0.9 3.5 0.00 0.00 0.00 28 1015.6
20220628171011 85 226 0.9 3.5 0.00 0.00 0.00 26 1015.6
20220628170512 84 160 0.0 1.7 0.00 0.00 0.00 28 1015.6
20220628170011 84 0 0.0 1.7 0.00 0.00 0.00 32 1015.6
20220628165511 83 170 0.0 2.6 0.00 0.00 0.00 28 1015.5
20220628165011 84 0 0.0 2.6 0.00 0.00 0.00 29 1015.5
20220628164509 83 221 0.0 2.6 0.00 0.00 0.00 28 1015.5
20220628164011 82 199 0.0 1.7 0.00 0.00 0.00 31 1015.4
20220628163512 81 0 0.0 0.9 0.00 0.00 0.00 31 1015.3
20220628163009 80 0 0.0 0.9 0.00 0.00 0.00 31 1015.4
20220628162512 79 0 0.0 0.9 0.00 0.00 0.00 33 1015.4
20220628162011 78 0 0.0 1.7 0.00 0.00 0.00 31 1015.4
20220628161509 78 0 0.0 1.7 0.00 0.00 0.00 32 1015.4
20220628161012 77 0 0.0 0.9 0.00 0.00 0.00 32 1015.6
20220628160512 77 0 0.0 0.0 0.00 0.00 0.00 33 1015.7
20220628160012 76 0 0.0 0.0 0.00 0.00 0.00 36 1015.7
20220628155513 76 0 0.0 0.9 0.00 0.00 0.00 35 1015.7
20220628155011 75 0 0.0 0.9 0.00 0.00 0.00 36 1015.8
20220628154512 75 0 0.0 0.9 0.00 0.00 0.00 37 1015.7
20220628154010 75 0 0.0 0.9 0.00 0.00 0.00 39 1015.8
20220628153511 74 0 0.0 0.9 0.00 0.00 0.00 43 1015.7
20220628153015 74 0 0.0 0.9 0.00 0.00 0.00 45 1015.7
20220628152511 73 0 0.0 0.9 0.00 0.00 0.00 46 1015.9
20220628152010 72 0 0.0 0.9 0.00 0.00 0.00 45 1015.8
20220628151512 72 0 0.0 0.9 0.00 0.00 0.00 48 1015.9
20220628151011 71 0 0.0 0.9 0.00 0.00 0.00 43 1016.0
20220628150511 71 0 0.0 0.0 0.00 0.00 0.00 40 1016.0
20220628150016 71 0 0.0 0.0 0.00 0.00 0.00 39 1016.0
20220628145511 70 0 0.0 0.9 0.00 0.00 0.00 40 1016.0
20220628145012 70 0 0.0 0.9 0.00 0.00 0.00 42 1015.9
20220628144513 70 0 0.0 0.9 0.00 0.00 0.00 40 1015.8
20220628144011 69 0 0.0 0.0 0.00 0.00 0.00 44 1015.9
20220628143511 68 0 0.0 0.0 0.00 0.00 0.00 48 1015.8
20220628143010 68 0 0.0 0.9 0.00 0.00 0.00 47 1015.9
20220628142511 68 0 0.0 0.9 0.00 0.00 0.00 46 1015.9
20220628142011 68 0 0.0 0.0 0.00 0.00 0.00 46 1015.8
20220628141511 68 0 0.0 0.0 0.00 0.00 0.00 47 1015.7
20220628141014 68 0 0.0 0.0 0.00 0.00 0.00 43 1015.6
20220628140513 68 0 0.0 0.0 0.00 0.00 0.00 43 1015.6
20220628140020 66 0 0.0 0.0 0.00 0.00 0.00 47 1015.6
20220628135511 65 0 0.0 0.0 0.00 0.00 0.00 48 1015.6
20220628135013 65 0 0.0 0.9 0.00 0.00 0.00 51 1015.6
20220628134519 66 0 0.0 0.9 0.00 0.00 0.00 46 1015.5
20220628134011 67 0 0.0 0.0 0.00 0.00 0.00 44 1015.4
20220628133512 66 0 0.0 0.0 0.00 0.00 0.00 45 1015.4
20220628133016 66 0 0.0 0.9 0.00 0.00 0.00 44 1015.3
20220628132512 66 0 0.0 0.9 0.00 0.00 0.00 43 1015.2
20220628132011 65 0 0.0 0.9 0.00 0.00 0.00 45 1015.2
20220628131511 64 0 0.0 0.9 0.00 0.00 0.00 50 1015.2
20220628131011 65 0 0.0 0.9 0.00 0.00 0.00 45 1015.2
20220628130514 65 360 0.0 0.9 0.00 0.00 0.00 46 1015.2
20220628130010 65 0 0.0 0.9 0.00 0.00 0.00 47 1015.3
20220628125511 63 0 0.0 0.9 0.00 0.00 0.00 48 1015.3
20220628125011 63 360 0.0 0.9 0.00 0.00 0.00 48 1015.3
20220628124509 63 0 0.0 0.9 0.00 0.00 0.00 48 1015.2
20220628124012 63 0 0.0 0.9 0.00 0.00 0.00 50 1015.2
20220628123512 63 0 0.0 0.9 0.00 0.00 0.00 50 1015.1
20220628123010 63 0 0.0 0.0 0.00 0.00 0.00 49 1015.1
20220628122511 63 0 0.0 1.7 0.00 0.00 0.00 50 1015.1
20220628122012 64 0 0.0 1.7 0.00 0.00 0.00 47 1015.1
20220628121513 63 0 0.0 1.7 0.00 0.00 0.00 49 1015.0
20220628121011 63 0 0.0 0.0 0.00 0.00 0.00 50 1015.0
20220628120511 63 0 0.0 0.0 0.00 0.00 0.00 50 1015.0
20220628120010 64 0 0.0 0.9 0.00 0.00 0.00 48 1014.9
20220628115512 65 0 0.0 0.9 0.00 0.00 0.00 44 1014.8
20220628115011 65 0 0.0 1.7 0.00 0.00 0.00 46 1014.7
20220628114510 64 0 0.0 1.7 0.00 0.00 0.00 50 1014.7
20220628114012 63 345 0.0 1.7 0.00 0.00 0.00 53 1014.6
20220628113511 63 0 0.0 0.9 0.00 0.00 0.00 54 1014.6
20220628113010 63 0 0.0 0.9 0.00 0.00 0.00 53 1014.6
20220628112512 63 0 0.0 0.0 0.00 0.00 0.00 51 1014.7
20220628112012 63 0 0.0 0.0 0.00 0.00 0.00 51 1014.8
20220628111523 63 0 0.0 0.0 0.00 0.00 0.00 49 1014.9
20220628111012 63 0 0.0 0.0 0.00 0.00 0.00 50 1014.9
20220628110512 63 0 0.0 0.9 0.00 0.00 0.00 52 1014.9
20220628110010 63 0 0.0 0.9 0.00 0.00 0.00 51 1014.9
20220628105511 63 0 0.0 0.0 0.00 0.00 0.00 50 1014.9
20220628105012 63 0 0.0 0.0 0.00 0.00 0.00 50 1015.0
20220628104513 64 0 0.0 0.0 0.00 0.00 0.00 49 1014.9
20220628104012 64 0 0.0 0.0 0.00 0.00 0.00 49 1014.9
20220628103511 64 0 0.0 0.0 0.00 0.00 0.00 49 1015.0
20220628103010 65 0 0.0 0.0 0.00 0.00 0.00 49 1014.9
20220628102512 65 0 0.0 0.0 0.00 0.00 0.00 47 1015.0
20220628102013 65 0 0.0 0.0 0.00 0.00 0.00 47 1015.0
20220628101521 65 0 0.0 0.0 0.00 0.00 0.00 46 1015.1
20220628101012 66 0 0.0 0.0 0.00 0.00 0.00 45 1015.1
20220628100512 66 0 0.0 0.0 0.00 0.00 0.00 44 1015.1
20220628100009 66 0 0.0 0.0 0.00 0.00 0.00 44 1015.1
20220628095512 66 0 0.0 0.0 0.00 0.00 0.00 45 1015.2
20220628095012 66 0 0.0 0.0 0.00 0.00 0.00 43 1015.3
20220628094510 66 0 0.0 0.0 0.00 0.00 0.00 45 1015.2
20220628094011 67 0 0.0 0.0 0.00 0.00 0.00 46 1015.2
20220628093511 67 0 0.0 0.0 0.00 0.00 0.00 45 1015.2
20220628093011 68 0 0.0 0.9 0.00 0.00 0.00 44 1015.2
20220628092511 69 0 0.0 0.9 0.00 0.00 0.00 41 1015.1
20220628092012 69 0 0.0 0.9 0.00 0.00 0.00 41 1015.1
20220628091519 69 0 0.0 0.9 0.00 0.00 0.00 43 1015.2
20220628091011 69 0 0.0 0.9 0.00 0.00 0.00 42 1015.2
20220628090512 69 0 0.0 0.9 0.00 0.00 0.00 43 1015.2
20220628090010 68 0 0.0 0.9 0.00 0.00 0.00 43 1015.1
20220628085513 68 0 0.0 0.9 0.00 0.00 0.00 44 1015.2
20220628085011 68 0 0.0 0.9 0.00 0.00 0.00 43 1015.1
20220628084510 68 0 0.0 0.9 0.00 0.00 0.00 44 1015.2
20220628084012 68 0 0.0 0.0 0.00 0.00 0.00 46 1015.3
20220628083511 69 0 0.0 0.9 0.00 0.00 0.00 47 1015.2
20220628083011 69 0 0.0 0.9 0.00 0.00 0.00 45 1015.3
20220628082512 68 0 0.0 0.9 0.00 0.00 0.00 45 1015.3
20220628082012 69 0 0.0 0.9 0.00 0.00 0.00 44 1015.3
20220628081511 68 0 0.0 1.7 0.00 0.00 0.00 45 1015.4
20220628081012 68 0 0.0 1.7 0.00 0.00 0.00 47 1015.4
20220628080512 68 0 0.0 0.0 0.00 0.00 0.00 45 1015.4
20220628080009 68 0 0.0 0.0 0.00 0.00 0.00 46 1015.4
20220628075512 68 0 0.0 0.0 0.00 0.00 0.00 46 1015.3
20220628075012 68 0 0.0 0.0 0.00 0.00 0.00 45 1015.5
20220628074511 69 0 0.0 0.0 0.00 0.00 0.00 45 1015.4
20220628074011 69 0 0.0 0.0 0.00 0.00 0.00 44 1015.3
20220628073512 69 0 0.0 0.0 0.00 0.00 0.00 44 1015.3
20220628073017 70 0 0.0 0.0 0.00 0.00 0.00 44 1015.4
20220628072512 70 0 0.0 0.0 0.00 0.00 0.00 43 1015.3
20220628072012 71 0 0.0 0.9 0.00 0.00 0.00 43 1015.4
20220628071510 71 0 0.0 0.9 0.00 0.00 0.00 41 1015.3
20220628071011 71 0 0.0 0.9 0.00 0.00 0.00 41 1015.2
20220628070511 71 0 0.0 0.9 0.00 0.00 0.00 41 1015.2
20220628070010 71 0 0.0 0.9 0.00 0.00 0.00 42 1015.2
20220628065513 71 0 0.0 0.0 0.00 0.00 0.00 43 1015.2
20220628065012 71 0 0.0 0.0 0.00 0.00 0.00 43 1015.2
20220628064510 71 0 0.0 0.9 0.00 0.00 0.00 44 1015.2
20220628064011 71 0 0.0 0.9 0.00 0.00 0.00 45 1015.2
20220628063512 71 0 0.0 0.9 0.00 0.00 0.00 44 1015.3
20220628063016 71 0 0.0 0.9 0.00 0.00 0.00 45 1015.3
20220628062511 70 0 0.0 0.0 0.00 0.00 0.00 46 1015.3
20220628062011 71 0 0.0 0.0 0.00 0.00 0.00 48 1015.3
20220628061512 71 0 0.0 0.0 0.00 0.00 0.00 48 1015.3
20220628061011 71 0 0.0 0.0 0.00 0.00 0.00 48 1015.3
20220628060511 72 0 0.0 0.0 0.00 0.00 0.00 48 1015.3
20220628060024 72 0 0.0 0.9 0.00 0.00 0.00 48 1015.2
20220628055511 72 0 0.0 0.9 0.00 0.00 0.00 47 1015.3
20220628055011 72 0 0.0 1.7 0.00 0.00 0.00 48 1015.3
20220628054519 72 0 0.0 1.7 0.00 0.00 0.00 47 1015.2
20220628054010 73 0 0.0 0.0 0.00 0.00 0.00 46 1015.3
20220628053510 73 0 0.0 0.0 0.00 0.00 0.00 45 1015.3
20220628053010 74 0 0.0 0.0 0.00 0.00 0.00 42 1015.2
20220628052511 74 0 0.0 0.0 0.00 0.00 0.00 40 1015.2
20220628052011 75 0 0.0 0.9 0.00 0.00 0.00 40 1015.1
20220628051509 75 0 0.0 1.7 0.00 0.00 0.00 40 1015.1
20220628051011 75 0 0.0 1.7 0.00 0.00 0.00 42 1015.0
20220628050511 75 317 0.0 1.7 0.00 0.00 0.00 44 1014.9
20220628050013 76 198 0.0 1.7 0.00 0.00 0.00 42 1014.9
20220628045515 77 0 0.0 1.7 0.00 0.00 0.00 40 1014.9
20220628045012 78 0 0.0 0.9 0.00 0.00 0.00 40 1014.9
20220628044513 79 0 0.0 0.9 0.00 0.00 0.00 38 1014.9
20220628044015 80 0 0.0 0.9 0.00 0.00 0.00 38 1014.8
20220628043511 81 0 0.0 0.9 0.00 0.00 0.00 36 1014.6
20220628043010 81 0 0.0 0.9 0.00 0.00 0.00 36 1014.6
20220628042514 82 0 0.0 0.9 0.00 0.00 0.00 35 1014.5
20220628042013 83 0 0.0 1.7 0.00 0.00 0.00 34 1014.5
20220628041513 83 0 0.0 1.7 0.00 0.00 0.00 34 1014.5
20220628041010 84 190 0.0 0.9 0.00 0.00 0.00 33 1014.5
20220628040513 86 0 0.0 2.6 0.00 0.00 0.00 31 1014.4
20220628040020 87 235 0.0 2.6 0.00 0.00 0.00 30 1014.4
20220628035511 87 215 0.0 3.5 0.00 0.00 0.00 29 1014.3
20220628035012 88 227 0.9 3.5 0.00 0.00 0.00 28 1014.3
20220628034510 88 0 0.0 3.5 0.00 0.00 0.00 27 1014.2
20220628034011 88 234 0.9 3.5 0.00 0.00 0.00 25 1014.2
20220628033510 88 197 0.9 2.6 0.00 0.00 0.00 24 1014.2
20220628033013 85 143 0.9 2.6 0.00 0.00 0.00 23 1014.1
20220628032512 83 194 0.0 1.7 0.00 0.00 0.00 25 1014.1
20220628032011 84 0 0.0 0.0 0.00 0.00 0.00 21 1014.0